SQ7KHZ-10 Weather Reports


time (UTC)temp
C
wind
direction
speed
KPH
gust
KPH
rain 1hr
cm
rain 24hr
cm
rain mn
cm
humidity
%
barometer
mb
20260508063507 8 278 0.0 0.0 0.00 0.00 0.00 97 1016.7
20260508061504 8 309 0.0 0.0 0.00 0.00 0.00 96 1016.7
20260508055504 8 309 0.0 0.0 0.00 0.00 0.00 97 1016.5
20260508053504 8 13 0.0 0.0 0.00 0.00 0.00 97 1016.5
20260508051503 8 347 0.0 0.0 0.00 0.00 0.00 97 1016.4
20260508045448 8 358 0.0 0.0 0.00 0.00 0.00 98 1016.3
20260508043446 8 352 0.0 0.0 0.00 0.00 0.00 99 1016.2
20260508041445 8 356 0.0 0.0 0.00 0.00 0.00 99 1015.9
20260508035444 8 357 3.2 3.2 0.00 0.00 0.00 99 1015.8
20260508033440 8 0 0.0 0.0 0.00 0.00 0.00 99 1015.7
20260508031438 8 341 0.0 0.0 0.00 0.00 0.00 99 1015.4
20260508025436 8 329 0.0 0.0 0.00 0.00 0.00 99 1015.4
20260508023433 8 327 0.0 0.0 0.00 0.00 0.00 99 1015.4
20260508021432 8 331 0.0 0.0 0.00 0.00 0.00 99 1015.4
20260508015430 8 344 0.0 0.0 0.00 0.00 0.00 99 1015.3
20260508013427 8 329 0.0 0.0 0.00 0.00 0.00 99 1015.3
20260508011422 9 258 0.0 0.0 0.00 0.00 0.00 99 1015.3
20260508005409 9 8 3.2 3.2 0.00 0.00 0.00 99 1015.1
20260508003408 9 342 0.0 0.0 0.00 0.00 0.00 99 1015.1
20260508001405 9 335 0.0 0.0 0.00 0.00 0.00 98 1015.0
20260507235353 10 329 0.0 0.0 0.00 0.00 0.00 98 1015.0
20260507233353 10 332 0.0 0.0 0.00 0.00 0.00 98 1015.0
20260507231353 10 313 0.0 0.0 0.00 0.00 0.00 98 1015.1
20260507225340 10 345 0.0 0.0 0.00 0.23 0.00 99 1014.9
20260507223339 10 330 0.0 0.0 0.00 0.23 0.00 98 1014.9
20260507221339 10 321 0.0 0.0 0.00 0.23 0.00 99 1014.9
20260507215338 10 319 0.0 0.0 0.00 0.23 0.00 99 1014.8
20260507213336 10 302 0.0 0.0 0.00 0.23 0.00 99 1014.7
20260507211334 10 343 0.0 0.0 0.00 0.23 0.00 99 1014.6
20260507205330 10 328 0.0 0.0 0.00 0.23 0.00 99 1014.4
20260507203312 11 13 0.0 0.0 0.00 0.23 0.00 99 1014.3
20260507201311 11 309 0.0 0.0 0.00 0.23 0.00 99 1014.2
20260507195310 11 345 0.0 0.0 0.00 0.23 0.00 99 1014.0
20260507193308 11 345 0.0 0.0 0.00 0.23 0.00 99 1014.0
20260507191306 11 338 0.0 0.0 0.00 0.23 0.00 99 1013.9
20260507185307 12 343 0.0 0.0 0.00 0.23 0.00 99 1013.5
20260507183254 12 348 0.0 0.0 0.00 0.23 0.00 99 1012.9
20260507181242 12 342 0.0 0.0 0.00 0.23 0.00 99 1012.7
20260507175241 12 352 0.0 0.0 0.08 0.23 0.00 99 1012.4
20260507173237 12 339 0.0 0.0 0.08 0.23 0.00 99 1012.5
20260507171236 13 327 0.0 0.0 0.10 0.23 0.00 99 1012.2
20260507165210 13 8 0.0 0.0 0.03 0.13 0.00 99 1012.2
20260507163145 13 4 0.0 0.0 0.03 0.13 0.00 99 1012.0
20260507161133 13 336 0.0 0.0 0.00 0.08 0.00 99 1011.8
20260507155057 13 311 0.0 0.0 0.03 0.08 0.00 99 1011.6
20260507153045 14 325 0.0 0.0 0.08 0.08 0.00 99 1011.4
20260507151021 15 1 0.0 0.0 0.08 0.08 0.00 97 1011.4
20260507145009 16 0 0.0 0.0 0.03 0.03 0.00 88 1011.3
20260507143008 17 328 3.2 3.2 0.00 0.00 0.00 79 1011.4
20260507140926 17 345 0.0 0.0 0.00 0.00 0.00 77 1011.3
20260507134924 18 10 0.0 0.0 0.00 0.00 0.00 78 1011.3
20260507132910 18 314 0.0 0.0 0.00 0.00 0.00 74 1011.3
20260507130906 17 128 0.0 0.0 0.00 0.00 0.00 79 1011.4
20260507124838 17 325 0.0 0.0 0.00 0.00 0.00 81 1011.3
20260507122837 17 335 3.2 3.2 0.00 0.00 0.00 82 1011.4
20260507120824 16 160 0.0 0.0 0.00 0.00 0.00 83 1011.6
20260507114746 15 335 0.0 0.0 0.00 0.00 0.00 86 1011.7
20260507112740 15 305 0.0 0.0 0.00 0.00 0.00 87 1011.6
20260507110734 15 269 4.8 4.8 0.00 0.00 0.00 89 1011.7
20260507104730 14 346 0.0 0.0 0.00 0.00 0.00 91 1011.4
20260507102713 14 11 3.2 3.2 0.00 0.00 0.00 93 1011.2
20260507100708 14 321 0.0 0.0 0.00 0.00 0.00 92 1010.9
20260507094704 14 330 0.0 0.0 0.00 0.00 0.00 91 1010.7
20260507092701 13 337 0.0 0.0 0.00 0.00 0.00 91 1010.4
20260507090659 14 335 0.0 0.0 0.00 0.00 0.00 92 1010.1
20260507084652 15 340 0.0 0.0 0.00 0.00 0.00 91 1009.8
20260507082648 15 307 4.8 4.8 0.00 0.00 0.00 90 1009.3
20260507080643 15 345 3.2 3.2 0.00 0.00 0.00 92 1009.1
20260507074611 15 300 0.0 0.0 0.00 0.00 0.00 93 1008.8
20260507072520 16 346 0.0 0.0 0.00 0.00 0.00 90 1008.6
20260507070505 15 327 0.0 0.0 0.00 0.00 0.00 91 1008.4